Regional Weather Roundup
Issued by NWS

Home | Current Version | Previous Version | Graphics & Text | Print | Product List | Glossary Off
Versions: 1 2 3 4 5 6 7 8 9 10 11 12 13 14 15 16 17 18 19 20 21 22 23 24 25 26 27 28 29 30 31 32 33 34 35 36 37 38 39 40 41 42 43 44 45 46 47 48 49 50

000
ASUS43 KDMX 300807
RWRIA

WEATHER ROUNDUP FOR IOWA
NATIONAL WEATHER SERVICE DES MOINES IA
200 AM CST FRI JAN 30 2015

NOTE: "FAIR" INDICATES FEW OR NO CLOUDS BELOW 12,000 FEET WITH NO
SIGNIFICANT WEATHER AND/OR OBSTRUCTIONS TO VISIBILITY.

* - THESE STATIONS ARE NOT NWS STATIONS...THUS NOT UNDER NWS
QUALITY CONTROL.  THEY ALSO DO NOT REPORT WEATHER SUCH
AS PRECIPITATION OR FOG.

IAZ001>003-012>014-020>022-031>034-043>046-300900-
   NORTHWEST IOWA

CITY           SKY/WX    TMP DP  RH WIND       PRES   REMARKS
CARROLL *      CLEAR     19  16  86 N8        30.54R WCI   9
CHEROKEE *     CLEAR     19  18  93 N3        30.54S
DENISON *      CLEAR     21  19  93 NE6       30.51F WCI  14
LE MARS *      PTCLDY    25  19  80 MISG      30.53F
ORANGE CITY *  MOCLDY    25  18  74 CALM      30.51F
SHELDON *      CLOUDY    21  18  86 NE7       30.51F WCI  13
SIOUX CITY     CLEAR     19  15  84 CALM      30.54F
SPENCER        CLEAR     18  12  77 N10       30.53F WCI   6
STORM LAKE *   CLEAR     18  16  93 N8        30.52S WCI   7
$$

IAZ055>058-069>071-079>083-090>094-300900-
   SOUTHWEST IOWA

CITY           SKY/WX    TMP DP  RH WIND       PRES   REMARKS
ATLANTIC *     CLEAR     21  18  86 N9        30.53S WCI  11
AUDUBON *      CLEAR     19  16  86 N3        30.53R
CLARINDA *     CLEAR     23  19  86 N6        30.56R WCI  16
COUNCIL BLFS * CLEAR     23  21  93 N3        30.53R
CRESTON *      CLEAR     23  19  86 N12G17    30.51S WCI  12
HARLAN  *      CLEAR     19  19 100 NE5       30.56F WCI  13
LAMONI         CLEAR     24  19  81 N12       30.50S WCI  13
RED OAK *      CLEAR     23  19  86 N9        30.55R WCI  13
SHENANDOAH *   CLEAR     21  18  86 N5        30.56R WCI  15
$$

IAZ047>049-059>061-072>074-084-300900-
   CENTRAL IOWA

CITY           SKY/WX    TMP DP  RH WIND       PRES   REMARKS
AMES           CLEAR     19  13  77 N15       30.54R WCI   5
ANKENY *       PTCLDY    21  16  79 N9        30.55R WCI  11
CHARITON *     CLOUDY    23  18  80 N10       30.52R WCI  12
DES MOINES     PTCLDY    22  15  75 N13       30.54R WCI  10
GRINNELL*      MOCLDY    21  16  79 N13       30.51F WCI   9
KNOXVILLE *    CLOUDY    23  16  74 N13G20    30.51S WCI  11
MARSHALLTOWN   CLEAR     19  15  84 NW9       30.52R WCI   8
PELLA *        CLOUDY    23  18  80 N9        30.54R WCI  13
PERRY *          N/A     21  18  86 N10       30.55R WCI  10
$$

IAZ004>006-015-016-023>025-035-036-300900-
   NORTH CENTRAL IOWA

CITY           SKY/WX    TMP DP  RH WIND       PRES   REMARKS
ALGONA *       CLEAR     16  12  86 N10G17    30.53F WCI   3
CLARION *      CLEAR     18  14  86 N14       30.54S WCI   4
ESTHERVILLE    CLEAR     15  11  83 N8        30.51F WCI   4
FORT DODGE *   CLEAR     18  10  73 N8        30.54S WCI   7
MASON CITY     CLEAR     15  11  83 NW13      30.54R WCI   1
FOREST CITY *  CLEAR     18  12  79 NW9       30.53S WCI   6
IOWA FALLS *     N/A     18  14  86 NW16      30.53S WCI   3
$$

IAZ007>011-017>019-026>030-037>042-050>054-066-300900-
   NORTHEAST IOWA

CITY           SKY/WX    TMP DP  RH WIND       PRES   REMARKS
CEDAR RAPIDS   CLEAR     20  15  81 NW9       30.49R WCI   9
CHARLES CITY * CLEAR     16  10  79 N13       30.51S WCI   2
CLINTON *      CLEAR     19  14  79 NW7       30.48R WCI  10
DECORAH *      CLEAR     14   9  79 N12       30.48R WCI   0
DUBUQUE        PTCLDY    20  11  68 N14       30.44R WCI   7
MONTICELLO *   CLEAR     21  12  68 N13       30.47R WCI   9
OELWEIN *      CLEAR     18  10  73 N15       30.49R WCI   3
WATERLOO       CLEAR     19  14  81 NW10      30.51R WCI   7
$$

IAZ064-065-067-068-078-300900-
   EAST CENTRAL IOWA

CITY           SKY/WX    TMP DP  RH WIND       PRES   REMARKS
DAVENPORT      PTCLDY    21  14  74 NW12      30.47R WCI   9
IOWA CITY      CLEAR     23  15  71 NW8       30.52R WCI  14
MT. PLEASANT * CLEAR     25  18  74 NW9       30.50R WCI  15
MUSCATINE *    CLEAR     25  16  68 NW10G16   30.50S WCI  15
QUAD CITIES    CLEAR     24  16  71 NW12      30.47R WCI  13
$$

IAZ062-063-075>077-085>089-095>099-300900-
   SOUTHEAST IOWA

CITY           SKY/WX    TMP DP  RH WIND       PRES   REMARKS
BURLINGTON     CLOUDY    27  18  69 N12G20    30.49R WCI  17
FAIRFIELD *    MOCLDY    25  16  68 N16       30.50S WCI  12
FORT MADISON * CLOUDY    27  19  74 NW9       30.50R WCI  17
KEOKUK *       CLOUDY    27  18  69 N12G17    30.50R WCI  16
OSKALOOSA *    CLOUDY    23  18  80 N15       30.52R WCI  10
CENTERVILLE *  MOCLDY    25  21  86 N12G17    30.51F WCI  14
OTTUMWA        CLOUDY    23  15  71 N15       30.51S WCI  10
WASHINGTON *   CLEAR     25  21  86 NW10      30.50R WCI  15
$$

ABBREVIATIONS USED IN REMARKS
   TC - TEMPERATURES IN CELSIUS
  WCI - WIND CHILL INDEX
   HX - HEAT INDEX
  VSB - VISIBILITY
$$




USA.gov is the U.S. government's official web portal to all federal, state and local government web resources and services.